User: anonymous   Login
Location: Unspecified
(0.0000°N, 0.0000°E)
Time: 16:30:22
(UTC+01:00)
Language:

Transit 2A - Orbit

View from above orbital plane
View from above orbital plane
View from above satellite
View from above satellite

Ground track
Ground track

The orbit data is extracted from the following two-line orbital elements,

1 00045U 60007A   15029.99417953  .00000345  00000-0  11213-3 0  3397
2 00045 066.6959 159.3171 0262999 305.2637 178.4489 14.33233540840991
Epoch (UTC): 29 January 2015 23:51:37
Eccentricity: 0.0262999
inclination: 66.6959°
perigee height: 592 km
apogee height: 969 km
right ascension of ascending node: 159.3171°
argument of perigee: 305.2637°
revolutions per day: 14.33233540
mean anomaly at epoch: 178.4489°
orbit number at epoch: 84099

The dashed part of the orbit path shows where the satellite is in the earth's shadow,  

DLR